Miscellaneous Local Product
Issued by NWS Hastings, NE

Home | Current Version | Previous Version | Text Only | Print | Product List | Glossary Off
Versions: 1 2 3 4 5 6 7 8 9 10 11 12 13 14 15 16 17 18 19 20 21 22 23 24 25 26 27 28 29 30 31 32 33 34 35 36 37 38 39 40 41 42 43 44 45 46 47 48 49 50

120
AXUS43 KGID 210802
MISGRI

GID CWA HOURLY WEATHER ROUNDUP
NATIONAL WEATHER SERVICE HASTINGS NE
300 AM CDT SAT APR 21 2018

NOTE: "FAIR" INDICATES FEW OR NO CLOUDS BELOW 12,000 FEET WITH NO
SIGNIFICANT WEATHER AND/OR OBSTRUCTIONS TO VISIBILITY.

...SOUTH CENTRAL NEBRASKA...

CITY           SKY/WX    TMP DP  RH WIND       PRES   REMARKS
GRAND ISLAND   CLOUDY    43  38  82 E6        30.28F
KEARNEY        LGT RAIN  41  39  93 E10       30.28F
HASTINGS       LGT RAIN  42  39  89 SE8       30.28S
ORD            LGT RAIN  42  40  92 SE7       30.29F FOG
YORK             N/A     48  32  53 SE10      30.26F
AURORA         CLOUDY    43  38  82 CALM      30.27F
LEXINGTON      CLOUDY    41  38  91 E13       30.25F
HOLDREGE       DRIZZLE   41  41  99 E10       30.25F
HEBRON         DRIZZLE   45  41  86 CALM      30.26F

...NEBRASKA PANHANDLE...

CITY           SKY/WX    TMP DP  RH WIND       PRES   REMARKS
CHADRON        CLOUDY    39  36  89 SE9       30.25S WCI  33
ALLIANCE       FLURRIES  34  34 100 SE7       30.22F WCI  28
SCOTTSBLUFF    LGT SNOW  34  32  92 E8        30.22S WCI  27
SIDNEY         LGT RAIN  35  33  92 E15       30.18S FOG     WCI  25

...WESTERN AND NORTH CENTRAL NEBRASKA...

CITY           SKY/WX    TMP DP  RH WIND       PRES   REMARKS
VALENTINE      CLOUDY    41  39  93 CALM      30.30S
AINSWORTH      DRIZZLE   41  38  90 SE6       30.29F
ONEILL         CLOUDY    46  37  71 SE9       30.32R
BROKEN BOW     LGT RAIN  41  38  89 E13       30.27F
IMPERIAL       LGT RAIN  39  39 100 E9        30.20S WCI  33
NORTH PLATTE   LGT RAIN  40  37  89 SE15      30.25F WCI  32
MCCOOK         CLOUDY    41  41 100 E14       30.21S

...EASTERN NEBRASKA...

CITY           SKY/WX    TMP DP  RH WIND       PRES   REMARKS
NORFOLK        CLOUDY    44  36  73 E7        30.32S
SO SIOUX CITY  CLOUDY    43  32  65 E3        30.37R
TEKAMAH        CLOUDY    45  36  70 NE3       30.36R
COLUMBUS       CLOUDY    47  35  63 E7        30.31F
ALBION         DRIZZLE   45  37  73 SE7       30.31F
OMAHA EPPLEY   CLOUDY    51  28  41 NE6       30.33F
OFFUTT AFB     CLOUDY    49  26  41 E7        30.30F
MILLARD        CLOUDY    53  28  37 CALM      30.31F
LINCOLN        CLOUDY    51  27  39 E10       30.28F
NEBRASKA CITY  CLOUDY    48  30  48 E6        30.29S
BEATRICE       CLOUDY    50  30  46 NE8       30.27S
FALLS CITY     CLOUDY    48  26  42 E8        30.29S

...NORTHERN KANSAS...

CITY           SKY/WX    TMP DP  RH WIND       PRES   REMARKS
GOODLAND       LGT RAIN  40  38  93 SE17G28   30.12F WCI  31
HILL CITY      LGT RAIN  43  42  97 E14       30.20F
NORTON         CLOUDY    41  39  93 E9        30.22R
PHILLIPSBURG   CLOUDY    43  43 100 E10       30.24S
SMITH CENTER   MOCLDY    41  39  93 E7        30.26S
BELOIT         CLOUDY    43  39  87 CALM      30.24S
HAYS           LGT RAIN  43  42  97 E15       30.17F
RUSSELL        RAIN      44  44 100 NE9       30.18S FOG
CONCORDIA      CLOUDY    48  35  60 E7        30.23F
SALINA         LGT RAIN  51  41  68 E5        30.21F
TOPEKA         CLOUDY    52  27  38 E6        30.25S



USA.gov is the U.S. government's official web portal to all federal, state and local government web resources and services.